Voltar ao catálogo

KOREASAT 6A

AtivoComunicaçõesGEO
NORAD 61910·PAYLOAD·🇰🇷 South Korea

Lançado Nov 11, 2024 de Cape Canaveral Space Force Station

Loading…

TLE

AtualizadoSource: Space-Track

Época: Sep 14, 2026, 21:11 UTC

1 61910U 24206A   26257.88326057 -.00000369  00000-0  00000-0 0  9991
2 61910   0.0108 158.4328 0000896 351.6110 277.8166  1.00272673  6730

Acompanhe KOREASAT 6A em tempo real com AllMySat

Download on the App Store